CW5619 Weather Reports


time (UTC)temp
F
wind
direction
speed
knots
gust
knots
rain 1hr
in
rain 24hr
in
rain mn
in
humidity
%
barometer
mb
20260905062903 82 80 0.0 2.6 0.00 0.00 0.00 55 1014.4
20260905062404 82 24 0.9 2.6 0.00 0.00 0.00 56 1014.5
20260905061904 82 127 0.0 0.0 0.00 0.00 0.00 57 1014.4
20260905061404 82 127 0.0 0.0 0.00 0.00 0.00 57 1014.3
20260905060904 83 127 0.0 0.0 0.00 0.00 0.00 55 1014.3
20260905054903 84 206 0.0 1.7 0.00 0.00 0.00 52 1014.2
20260905054403 84 51 0.0 0.9 0.00 0.00 0.00 52 1014.1
20260905053903 84 51 0.0 0.9 0.00 0.00 0.00 51 1014.0
20260905053403 84 51 0.0 1.7 0.00 0.00 0.00 50 1014.0
20260905052903 85 51 0.0 1.7 0.00 0.00 0.00 49 1013.9
20260905052404 85 51 0.0 0.9 0.00 0.00 0.00 49 1013.9
20260905051904 85 51 0.0 0.9 0.00 0.00 0.00 49 1013.9
20260905051404 85 51 0.0 0.9 0.00 0.00 0.00 50 1013.8
20260905050903 85 51 0.0 1.7 0.00 0.00 0.00 50 1013.8
20260905045904 85 55 0.9 2.6 0.00 0.00 0.00 49 1013.8
20260905045403 85 81 0.9 1.7 0.00 0.00 0.00 49 1013.7
20260905044904 85 101 0.0 0.9 0.00 0.00 0.00 50 1013.8
20260905044403 85 101 0.0 0.9 0.00 0.00 0.00 50 1013.8
20260905043904 86 101 0.0 1.7 0.00 0.00 0.00 48 1013.7
20260905043404 86 104 0.9 1.7 0.00 0.00 0.00 47 1013.7
20260905042903 87 229 0.0 0.9 0.00 0.00 0.00 46 1013.8
20260905041904 88 229 0.0 0.0 0.00 0.01 0.00 42 1013.7
20260905041403 88 229 0.0 1.7 0.00 0.05 0.00 41 1013.7
20260905040904 89 229 0.0 2.6 0.00 0.07 0.00 40 1013.7
20260905040404 89 229 0.0 2.6 0.00 0.08 0.00 40 1013.6
20260905035904 89 253 0.9 2.6 0.00 0.08 0.00 39 1013.7
20260905035404 89 238 0.0 4.3 0.00 0.10 0.00 39 1013.7
20260905034904 89 246 0.9 4.3 0.00 0.10 0.00 39 1013.6
20260905034403 90 224 0.9 2.6 0.00 0.10 0.00 39 1013.6
20260905033903 90 243 0.9 2.6 0.00 0.10 0.00 38 1013.6
20260905032903 90 221 0.9 2.6 0.00 0.10 0.00 38 1013.5
20260905031903 90 209 0.9 2.6 0.00 0.10 0.00 37 1013.4
20260905031403 90 220 0.9 2.6 0.00 0.10 0.00 37 1013.2
20260905030903 90 207 0.0 1.7 0.00 0.10 0.00 37 1013.1
20260905030404 91 213 0.0 1.7 0.00 0.10 0.00 37 1013.1
20260905024903 91 211 0.9 1.7 0.00 0.10 0.00 36 1012.9
20260905024403 91 226 0.9 2.6 0.00 0.10 0.00 36 1012.8
20260905023904 91 223 0.9 2.6 0.00 0.10 0.00 36 1012.8
20260905022903 92 247 0.9 2.6 0.00 0.10 0.00 35 1012.5
20260905022403 92 229 0.9 5.2 0.00 0.10 0.00 35 1012.5
20260905021904 92 239 1.7 5.2 0.00 0.10 0.00 34 1012.5
20260905021403 92 247 0.9 2.6 0.00 0.10 0.00 33 1012.4
20260905020903 92 242 1.7 4.3 0.00 0.10 0.00 33 1012.4
20260905020403 92 240 1.7 4.3 0.00 0.10 0.00 33 1012.3
20260905015903 92 239 1.7 2.6 0.00 0.10 0.00 33 1012.2
20260905015404 93 236 0.9 2.6 0.00 0.10 0.00 33 1012.3
20260905014904 93 228 0.9 2.6 0.00 0.10 0.00 32 1012.2
20260905014404 93 241 0.9 2.6 0.00 0.10 0.00 31 1012.2
20260905013903 93 211 0.0 1.7 0.00 0.10 0.00 31 1012.3
20260905013403 93 228 0.0 5.2 0.00 0.10 0.00 31 1012.2
20260905012403 94 282 0.9 2.6 0.00 0.10 0.00 31 1012.2
20260905011904 94 297 1.7 5.2 0.00 0.10 0.00 31 1012.2
20260905011403 94 209 1.7 5.2 0.00 0.10 0.00 30 1012.1
20260905010903 94 277 0.9 6.1 0.00 0.10 0.00 30 1012.0
20260905010404 94 218 1.7 6.1 0.00 0.10 0.00 30 1012.1
20260905005903 94 18 0.9 5.2 0.00 0.10 0.00 30 1012.0
20260905005403 95 304 1.7 6.1 0.00 0.10 0.00 29 1012.0
20260905004903 95 13 1.7 6.1 0.00 0.10 0.00 29 1011.9
20260905004404 95 238 1.7 6.1 0.00 0.10 0.00 29 1012.0
20260905003904 95 196 1.7 2.6 0.00 0.10 0.00 28 1012.0
20260905002903 96 332 0.9 4.3 0.00 0.10 0.00 28 1012.0
20260905002403 96 135 0.9 5.2 0.00 0.10 0.00 28 1011.9
20260905001904 96 340 1.7 5.2 0.00 0.10 0.00 28 1011.8
20260905001403 96 266 0.9 6.1 0.00 0.10 0.00 27 1011.8
20260905000904 96 335 2.6 7.0 0.00 0.10 0.00 27 1011.8
20260905000404 97 251 1.7 7.0 0.00 0.10 0.00 26 1011.8
20260904235403 97 238 1.7 6.1 0.00 0.10 0.00 26 1011.6
20260904234403 97 237 1.7 5.2 0.00 0.10 0.00 28 1011.7
20260904233903 97 16 1.7 4.3 0.00 0.10 0.00 29 1011.8
20260904232903 97 45 0.9 6.1 0.00 0.10 0.00 29 1011.8
20260904231404 98 253 2.6 6.1 0.00 0.10 0.00 27 1012.0
20260904230903 97 65 0.9 6.1 0.00 0.10 0.00 31 1012.0
20260904230403 96 292 1.7 5.2 0.00 0.10 0.00 31 1012.0
20260904225904 96 213 0.9 6.1 0.00 0.10 0.00 30 1012.0
20260904224904 96 198 0.9 6.1 0.00 0.10 0.00 32 1012.2
20260904224404 97 163 1.7 6.1 0.00 0.10 0.00 30 1012.2
20260904223904 98 230 1.7 4.3 0.00 0.10 0.00 30 1012.2
20260904223404 98 67 0.0 7.8 0.00 0.10 0.00 30 1012.3
20260904222903 98 70 1.7 7.8 0.00 0.10 0.00 30 1012.3
20260904221904 98 213 1.7 7.8 0.00 0.10 0.00 30 1012.5
20260904221403 98 222 1.7 7.0 0.00 0.10 0.00 29 1012.4
20260904220904 99 343 0.9 5.2 0.00 0.10 0.00 29 1012.6
20260904220403 98 306 1.7 6.1 0.00 0.10 0.00 29 1012.5
20260904215904 99 353 2.6 6.1 0.00 0.10 0.00 29 1012.6
20260904214903 98 242 1.7 7.0 0.00 0.10 0.00 30 1012.7
20260904214403 98 318 1.7 7.8 0.00 0.10 0.00 29 1012.8
20260904213904 98 10 3.5 7.8 0.00 0.10 0.00 30 1012.8
20260904213404 97 39 1.7 7.0 0.00 0.10 0.00 29 1012.8
20260904212904 99 227 2.6 7.0 0.00 0.10 0.00 28 1012.9
20260904212403 98 101 1.7 5.2 0.00 0.10 0.00 28 1012.9
20260904211904 98 227 1.7 8.7 0.00 0.10 0.00 30 1013.0
20260904211403 98 254 2.6 8.7 0.00 0.10 0.00 28 1013.1
20260904210904 99 228 3.5 8.7 0.00 0.10 0.00 28 1013.1
20260904210403 98 227 2.6 7.0 0.00 0.10 0.00 30 1013.2
20260904205904 98 338 2.6 6.1 0.00 0.10 0.00 30 1013.2
20260904204403 96 225 0.9 5.2 0.00 0.10 0.00 32 1013.3
20260904203903 96 211 1.7 4.3 0.00 0.10 0.00 34 1013.4
20260904203403 97 200 2.6 5.2 0.00 0.10 0.00 32 1013.5
20260904202904 97 228 0.9 7.8 0.00 0.10 0.00 33 1013.6
20260904202404 98 299 2.6 7.8 0.00 0.10 0.00 34 1013.7
20260904201903 96 242 2.6 6.1 0.00 0.10 0.00 36 1013.7
20260904201404 97 40 1.7 7.0 0.00 0.10 0.00 34 1013.8
20260904200903 97 233 2.6 7.0 0.00 0.10 0.00 35 1013.9
20260904200404 96 234 3.5 7.0 0.00 0.10 0.00 37 1014.0
20260904195904 96 147 1.7 4.3 0.00 0.10 0.00 36 1014.1
20260904195404 96 30 1.7 4.3 0.00 0.10 0.00 38 1014.0
20260904194903 95 212 0.9 2.6 0.00 0.10 0.00 39 1014.1
20260904194403 94 105 0.9 2.6 0.00 0.10 0.00 39 1014.2
20260904193903 94 56 0.9 6.1 0.00 0.10 0.00 40 1014.3
20260904192904 94 86 0.9 5.2 0.00 0.10 0.00 40 1014.4
20260904192403 94 193 1.7 5.2 0.00 0.10 0.00 39 1014.6
20260904191903 94 250 0.9 6.1 0.00 0.10 0.00 41 1014.6
20260904191403 94 230 1.7 6.1 0.00 0.10 0.00 40 1014.6
20260904190903 94 219 1.7 5.2 0.00 0.10 0.00 39 1014.6
20260904190404 93 55 1.7 4.3 0.00 0.10 0.00 40 1014.7
20260904185904 93 48 1.7 4.3 0.00 0.10 0.00 40 1014.8
20260904185403 92 38 1.7 5.2 0.00 0.10 0.00 40 1014.8
20260904184903 92 122 1.7 5.2 0.00 0.10 0.00 40 1014.9
20260904184403 93 183 0.9 5.2 0.00 0.10 0.00 39 1014.9
20260904183903 93 92 1.7 5.2 0.00 0.10 0.00 40 1015.0
20260904182903 92 39 1.7 5.2 0.00 0.10 0.00 41 1015.1
20260904181403 91 153 0.9 2.6 0.00 0.10 0.00 43 1015.3
20260904180904 91 94 1.7 4.3 0.00 0.10 0.00 43 1015.4
20260904180403 91 148 0.9 4.3 0.00 0.10 0.00 44 1015.4
20260904175903 91 240 1.7 5.2 0.00 0.10 0.00 44 1015.4
20260904175403 91 188 1.7 5.2 0.00 0.10 0.00 46 1015.4
20260904174904 90 141 0.9 7.0 0.00 0.10 0.00 50 1015.5
20260904174403 90 159 2.6 7.0 0.00 0.10 0.00 47 1015.5
20260904173904 90 80 1.7 5.2 0.00 0.10 0.00 51 1015.7
20260904173403 89 94 1.7 6.1 0.00 0.10 0.00 50 1015.8
20260904172904 89 165 0.9 6.1 0.00 0.10 0.00 51 1015.9
20260904172403 89 113 2.6 8.7 0.00 0.10 0.00 51 1015.8
20260904171904 89 113 2.6 8.7 0.00 0.10 0.00 53 1016.0
20260904171403 88 93 1.7 8.7 0.00 0.10 0.00 53 1016.0
20260904170903 88 140 0.9 7.0 0.00 0.10 0.00 54 1016.1
20260904170404 87 93 3.5 7.0 0.00 0.10 0.00 54 1016.2
20260904165904 88 118 1.7 8.7 0.00 0.10 0.00 56 1016.1
20260904165403 87 115 1.7 8.7 0.00 0.10 0.00 56 1016.0
20260904164904 87 142 2.6 7.8 0.00 0.10 0.00 55 1016.0
20260904164403 87 139 1.7 7.0 0.00 0.10 0.00 56 1016.0
20260904163904 86 103 1.7 7.0 0.00 0.10 0.00 57 1015.9
20260904162404 86 116 2.6 6.1 0.00 0.10 0.00 57 1015.9
20260904161903 86 95 3.5 7.0 0.00 0.10 0.00 57 1015.9
20260904160903 85 211 3.5 8.7 0.00 0.10 0.00 58 1015.7
20260904160404 85 99 1.7 7.0 0.00 0.10 0.00 58 1015.7
20260904155903 85 121 1.7 10.4 0.00 0.10 0.00 59 1015.8
20260904155404 84 41 2.6 10.4 0.00 0.10 0.00 59 1015.7
20260904154903 84 134 2.6 7.0 0.00 0.10 0.00 59 1015.7
20260904154404 84 151 1.7 10.4 0.00 0.10 0.00 59 1015.6
20260904153903 84 106 2.6 10.4 0.00 0.10 0.00 60 1015.6
20260904153404 84 92 2.6 7.0 0.00 0.10 0.00 60 1015.5
20260904152904 84 111 1.7 7.0 0.00 0.10 0.00 61 1015.7
20260904152404 83 109 2.6 7.0 0.00 0.10 0.00 62 1015.6
20260904151904 82 106 2.6 7.0 0.00 0.10 0.00 63 1015.6
20260904151403 82 92 1.7 6.1 0.00 0.10 0.00 62 1015.6
20260904150904 82 164 1.7 2.6 0.00 0.10 0.00 63 1015.6
20260904150403 82 99 0.9 7.0 0.00 0.10 0.00 64 1015.7
20260904145904 82 146 1.7 7.0 0.00 0.10 0.00 64 1015.5
20260904144903 82 119 1.7 8.7 0.00 0.10 0.00 64 1015.5
20260904144404 82 109 1.7 8.7 0.00 0.10 0.00 64 1015.5
20260904143904 81 145 1.7 6.1 0.00 0.10 0.00 64 1015.5
20260904143404 81 113 1.7 6.1 0.00 0.10 0.00 65 1015.5
20260904142903 81 143 1.7 6.1 0.00 0.10 0.00 65 1015.5
20260904141904 80 143 1.7 6.1 0.00 0.10 0.00 66 1015.4
20260904140904 80 156 1.7 6.1 0.00 0.10 0.00 67 1015.3
20260904140403 79 106 1.7 2.6 0.00 0.10 0.00 68 1015.3
20260904135904 79 139 0.9 5.2 0.00 0.10 0.00 68 1015.2
20260904135403 79 115 1.7 5.2 0.00 0.10 0.00 69 1015.2
20260904134904 79 137 1.7 2.6 0.00 0.10 0.00 69 1015.1
20260904134403 78 60 0.9 6.1 0.00 0.10 0.00 69 1015.0
20260904133903 78 114 1.7 6.1 0.00 0.10 0.00 69 1014.9
20260904133403 78 111 0.9 2.6 0.00 0.10 0.00 69 1014.8
20260904132903 78 109 0.9 2.6 0.00 0.10 0.00 69 1014.7
20260904131904 78 111 0.0 2.6 0.00 0.10 0.00 69 1014.7
20260904131403 78 117 0.9 2.6 0.00 0.10 0.00 69 1014.6
20260904130404 78 136 0.9 2.6 0.00 0.10 0.00 69 1014.5
20260904125904 78 119 0.9 2.6 0.00 0.10 0.00 69 1014.4
20260904125403 78 114 0.9 2.6 0.00 0.10 0.00 69 1014.3
20260904124903 78 121 1.7 2.6 0.00 0.10 0.00 69 1014.3
20260904122903 78 101 1.7 6.1 0.00 0.10 0.00 69 1014.0
20260904122403 78 98 1.7 6.1 0.00 0.10 0.00 69 1013.9
20260904121403 79 121 0.9 2.6 0.00 0.10 0.00 68 1013.8
20260904120903 79 132 1.7 4.3 0.00 0.10 0.00 68 1013.8
20260904120403 79 113 0.9 4.3 0.00 0.10 0.00 67 1013.7
20260904115903 79 125 0.9 2.6 0.00 0.10 0.00 67 1013.7
20260904115404 79 110 0.9 2.6 0.00 0.10 0.00 67 1013.8
20260904114904 79 95 0.9 2.6 0.00 0.10 0.00 67 1013.8
20260904114403 79 125 1.7 4.3 0.00 0.10 0.00 67 1013.8
20260904113904 79 97 0.9 4.3 0.00 0.10 0.00 67 1013.8
20260904113403 79 127 1.7 4.3 0.00 0.10 0.00 67 1013.8
20260904112904 79 170 0.9 2.6 0.00 0.10 0.00 67 1013.7
20260904112403 80 114 0.9 2.6 0.00 0.10 0.00 66 1013.6
20260904111904 80 107 1.7 2.6 0.00 0.10 0.00 66 1013.6
20260904111404 80 107 1.7 5.2 0.00 0.10 0.00 66 1013.7
20260904110903 80 113 1.7 5.2 0.00 0.10 0.00 66 1013.6
20260904105903 80 104 1.7 6.1 0.00 0.10 0.00 66 1013.6
20260904105404 80 117 1.7 6.1 0.00 0.10 0.00 66 1013.6
20260904104903 80 115 1.7 6.1 0.00 0.10 0.00 66 1013.5
20260904104403 80 108 2.6 6.1 0.00 0.10 0.00 66 1013.5
20260904103904 80 101 2.6 6.1 0.00 0.10 0.00 66 1013.5
20260904103404 80 112 1.7 6.1 0.00 0.10 0.00 66 1013.6
20260904102904 80 116 1.7 5.2 0.00 0.10 0.00 66 1013.6
20260904102404 80 99 1.7 5.2 0.00 0.10 0.00 66 1013.6
20260904101904 80 108 1.7 6.1 0.00 0.10 0.00 66 1013.7
20260904101404 80 118 1.7 6.1 0.00 0.10 0.00 66 1013.7
20260904100903 80 121 1.7 5.2 0.00 0.10 0.00 66 1013.6
20260904100403 80 87 1.7 5.2 0.00 0.10 0.00 66 1013.5
20260904095903 80 125 0.9 6.1 0.00 0.10 0.00 66 1013.5
20260904095404 80 103 1.7 6.1 0.00 0.10 0.00 66 1013.4
20260904094904 80 112 1.7 6.1 0.00 0.10 0.00 66 1013.4
20260904093904 80 112 1.7 7.0 0.00 0.10 0.00 66 1013.3
20260904093403 80 110 1.7 6.1 0.00 0.10 0.00 66 1013.3
20260904091904 80 122 2.6 7.0 0.00 0.10 0.00 66 1013.1
20260904091404 80 125 1.7 2.6 0.00 0.10 0.00 67 1013.1
20260904090404 80 121 1.7 5.2 0.00 0.10 0.00 67 1013.3
20260904085903 80 124 1.7 5.2 0.00 0.10 0.00 67 1013.3
20260904085403 80 116 1.7 2.6 0.00 0.10 0.00 67 1013.3
20260904084904 80 141 1.7 2.6 0.00 0.10 0.00 67 1013.4
20260904083904 80 107 1.7 2.6 0.00 0.10 0.00 67 1013.4
20260904083404 80 122 0.9 2.6 0.00 0.10 0.00 67 1013.4
20260904082903 80 133 0.9 2.6 0.00 0.10 0.00 68 1013.4
20260904082404 80 111 0.9 2.6 0.00 0.10 0.00 68 1013.5
20260904081904 80 116 0.9 4.3 0.00 0.10 0.00 68 1013.5
20260904081403 80 101 0.9 4.3 0.00 0.10 0.00 68 1013.5
20260904080904 80 111 1.7 2.6 0.00 0.10 0.00 68 1013.5
20260904080403 80 117 0.9 2.6 0.00 0.10 0.00 68 1013.6
20260904075904 80 175 0.9 6.1 0.00 0.10 0.00 67 1013.6
20260904075403 80 115 0.0 6.1 0.00 0.10 0.00 67 1013.6
20260904074904 80 108 1.7 6.1 0.00 0.10 0.00 67 1013.5
20260904074403 80 116 0.9 2.6 0.00 0.10 0.00 66 1013.6
20260904073904 80 121 1.7 2.6 0.00 0.10 0.00 66 1013.5
20260904073403 80 96 0.9 2.6 0.00 0.10 0.00 66 1013.6
20260904072904 80 134 0.9 4.3 0.00 0.10 0.00 66 1013.6
20260904072403 80 98 1.7 4.3 0.00 0.10 0.00 66 1013.6
20260904071904 80 114 0.9 4.3 0.00 0.10 0.00 66 1013.5
20260904071404 80 103 1.7 5.2 0.00 0.10 0.00 66 1013.6
20260904070903 80 145 0.9 5.2 0.00 0.10 0.00 66 1013.6
20260904070404 80 142 0.9 5.2 0.00 0.10 0.00 66 1013.5
20260904065403 80 90 1.7 5.2 0.00 0.10 0.10 65 1013.6
20260904064903 80 95 0.9 5.2 0.00 0.10 0.10 66 1013.6
20260904064404 80 165 1.7 4.3 0.00 0.10 0.10 66 1013.6
20260904063904 80 153 1.7 2.6 0.00 0.10 0.10 66 1013.6
20260904063404 80 101 0.9 2.6 0.00 0.10 0.10 67 1013.6